Regional Weather Roundup
Issued by NWS Cleveland, OH

Home | Current Version | Previous Version | Graphics & Text | Print | Product List | Glossary On
Versions: 1 2 3 4 5 6 7 8 9 10 11 12 13 14 15 16 17 18 19 20 21 22 23 24 25 26 27 28 29 30 31 32 33 34 35 36 37 38 39 40 41 42 43 44 45 46 47 48 49 50
555
ASUS41 KCLE 201110
RWRCLE
OHIO REGIONAL WEATHER ROUNDUP
NATIONAL WEATHER SERVICE WILMINGTON, OH
600 AM EST SAT JAN 20 2018

NOTE: "FAIR" INDICATES FEW OR NO CLOUDS BELOW 12,000 FEET WITH NO
SIGNIFICANT WEATHER AND/OR OBSTRUCTIONS TO VISIBILITY.

OHZ001>008-015>018-024>027-034-035-043-044-201200-
   NORTHWEST OHIO

CITY           SKY/WX    TMP DP  RH WIND       PRES   REMARKS
DEFIANCE       FAIR      32  23  69 SW12      29.90R WCI  23
FINDLAY        FAIR      34  23  64 SW13      29.91R WCI  25
TOLEDO EXPRESS FAIR      34  25  69 SW15      29.88R WCI  24
TOLEDO EXEC    FAIR      32  24  72 SW14      29.89R WCI  22
LIMA           FAIR      33  24  69 SW16      29.93R WCI  23
$$

OHZ009>014-019>023-028>033-038-089-201200-
   NORTHEAST OHIO

CITY           SKY/WX    TMP DP  RH WIND       PRES   REMARKS
CLE-HOPKINS    FAIR      38  24  57 SW17G28   29.94R
CLE-LAKEFRONT  FAIR      39  23  52 SW17G33   29.90R
CUY CO. ARPT   NOT AVBL
LORAIN-ELYRIA  FAIR      34  20  56 MISG      29.92R
ASHTABULA      FAIR      34  23  64 SW14G24   29.89R WCI  25
AKRON-CANTON   FAIR      31  20  63 SW15      29.94R WCI  20
WOOSTER        FAIR      31  21  66 SW13      29.95R WCI  21
MANSFIELD      FAIR      33  22  63 S17       29.94R WCI  22
YOUNGSTOWN     FAIR      33  22  63 SW12      29.92R WCI  24
$$

OHZ042-051>053-060>062-070>072-077>081-201200-
  SOUTHWEST OHIO

CITY           SKY/WX    TMP DP  RH WIND       PRES   REMARKS
CINC-COVINGTON FAIR      33  25  72 SW12      30.04S WCI  24
CINC-LUNKEN    FAIR      35  25  66 S10       30.08S WCI  27
HAMILTON       FAIR      33  24  69 S5        30.07R WCI  29
DAYTON         MOCLDY    31  23  72 SW14      30.00R WCI  21
WRIGHT-PAT AFB FAIR      33  17  52 S14       30.01R WCI  23
DAYTON GENERAL FAIR      34  23  64 SW10      30.02R WCI  26
WILMINGTON     FAIR      32  24  72 SW15      30.03R WCI  22
$$

OHZ036-037-039>041-045>050-054>059-063>069-073>076-082>088-201200-
  CENTRAL AND SOUTHEAST OHIO

CITY           SKY/WX    TMP DP  RH WIND       PRES   REMARKS
COLUMBUS       FAIR      30  22  72 S7        30.02S WCI  23
OSU AIRPORT    FAIR      29  23  78 S7        30.01R WCI  22
BOLTON FIELD   FAIR      30  22  72 S8        30.02R WCI  23
RICKENBACK AFB FAIR      32  24  71 S14       30.03S WCI  22
NEWARK         FAIR      36  23  59 SW10      30.01S
MARION         FAIR      32  21  64 SW10      29.97R WCI  24
LANCASTER      FAIR      37  24  59 SW15G22   30.03F
ZANESVILLE     FAIR      32  20  61 S12       30.03S WCI  23
NEW PHILLY     FAIR      34  22  61 SW7       30.00S WCI  28
$$




USA.gov is the U.S. government's official web portal to all federal, state and local government web resources and services.